AFR356G LFPG-CYYZ

Flight info

Callsign AFR356G
Flight time N/A
Altitude 34000
Route ELCOB UT300 SENLO UN502 JSY DCT LIZAD DCT LESLU DCT MALOT/M082F340 DCT 54N020W 54N030W 53N040W 51N050W DCT ALLRY/N0474F340 N482C MIILS/N0485F380 DCT VILRO DCT SAVEX Q806 TUKIR RAGID6
Aircraft B77W/H-SDE1E2E3FGHIJ2J3J4J5M1RWXY/LB1D1

Departure

Time N/A
Airport Charles de Gaulle International Airport (LFPG)

Arrival

Time 2026-05-07 19:55
Airport Toronto Pearson International Airport (CYYZ)
Time Latitude Longitude Altitude Speed Heading
2026-05-07 16:14 51.90701 -46.07999 36212 ft 436 kts 252°
2026-05-07 16:14 51.89723 -46.12643 36227 ft 436 kts 252°
2026-05-07 16:15 51.87769 -46.21886 36211 ft 437 kts 252°
2026-05-07 16:15 51.85794 -46.31186 36222 ft 437 kts 251°
2026-05-07 16:16 51.83810 -46.40491 36222 ft 438 kts 251°
2026-05-07 16:16 51.81812 -46.49814 36221 ft 439 kts 251°
2026-05-07 16:17 51.79808 -46.59124 36215 ft 439 kts 251°
2026-05-07 16:17 51.77795 -46.68434 36215 ft 439 kts 251°
2026-05-07 16:18 51.75771 -46.77746 36215 ft 439 kts 251°
2026-05-07 16:18 51.73753 -46.86998 36214 ft 439 kts 251°
2026-05-07 16:19 51.71718 -46.96282 36210 ft 439 kts 251°
2026-05-07 16:19 51.69680 -47.05538 36209 ft 438 kts 251°
2026-05-07 16:20 51.67632 -47.14795 36214 ft 438 kts 251°
2026-05-07 16:20 51.65579 -47.24035 36213 ft 438 kts 250°
2026-05-07 16:21 51.63524 -47.33247 36215 ft 437 kts 250°
2026-05-07 16:21 51.61462 -47.42448 36215 ft 437 kts 250°
2026-05-07 16:22 51.59390 -47.51650 36212 ft 437 kts 250°
2026-05-07 16:22 51.57310 -47.60851 36212 ft 437 kts 250°
2026-05-07 16:23 51.55224 -47.70035 36217 ft 437 kts 250°
2026-05-07 16:23 51.53147 -47.79144 36214 ft 437 kts 250°
2026-05-07 16:24 51.51048 -47.88308 36226 ft 436 kts 249°
2026-05-07 16:24 51.48954 -47.97408 36213 ft 433 kts 249°
2026-05-07 16:25 51.46867 -48.06445 36217 ft 430 kts 249°
2026-05-07 16:25 51.44785 -48.15416 36217 ft 428 kts 249°
2026-05-07 16:26 51.42704 -48.24351 36208 ft 427 kts 249°
2026-05-07 16:26 51.40635 -48.33193 36198 ft 426 kts 249°
2026-05-07 16:27 51.38547 -48.42082 36212 ft 426 kts 249°
2026-05-07 16:27 51.36447 -48.50982 36213 ft 427 kts 249°
2026-05-07 16:28 51.34340 -48.59877 36207 ft 428 kts 249°
2026-05-07 16:28 51.32221 -48.68786 36199 ft 429 kts 248°
2026-05-07 16:29 51.30090 -48.77711 36192 ft 430 kts 248°
2026-05-07 16:29 51.27951 -48.86629 36192 ft 430 kts 248°
2026-05-07 16:30 51.25815 -48.95502 36201 ft 430 kts 248°
2026-05-07 16:30 51.23661 -49.04411 36205 ft 429 kts 248°
2026-05-07 16:31 51.21513 -49.13259 36202 ft 427 kts 248°
2026-05-07 16:31 51.19370 -49.22053 36189 ft 424 kts 248°
2026-05-07 16:32 51.17233 -49.30787 36198 ft 422 kts 248°
2026-05-07 16:32 51.15096 -49.39484 36192 ft 421 kts 247°
2026-05-07 16:33 51.12951 -49.48184 36200 ft 421 kts 247°
2026-05-07 16:33 51.10803 -49.56859 36191 ft 422 kts 247°
2026-05-07 16:34 51.08842 -49.65678 36183 ft 424 kts 254°
2026-05-07 16:34 51.07501 -49.74827 36192 ft 425 kts 255°
2026-05-07 16:35 51.06121 -49.83977 36199 ft 426 kts 254°
2026-05-07 16:35 51.04728 -49.93076 36189 ft 427 kts 254°
2026-05-07 16:36 51.03314 -50.02241 36193 ft 427 kts 253°
2026-05-07 16:36 51.01892 -50.11401 36181 ft 427 kts 253°
2026-05-07 16:37 51.00463 -50.20558 36178 ft 427 kts 253°
2026-05-07 16:37 50.99027 -50.29712 36179 ft 426 kts 253°
2026-05-07 16:38 50.97588 -50.38834 36175 ft 426 kts 253°
2026-05-07 16:38 50.96140 -50.47958 36169 ft 426 kts 253°
2026-05-07 16:39 50.94689 -50.57059 36168 ft 426 kts 253°
2026-05-07 16:39 50.93237 -50.66109 36162 ft 427 kts 252°
2026-05-07 16:40 50.91765 -50.75239 36158 ft 428 kts 252°
2026-05-07 16:40 50.90283 -50.84372 36180 ft 429 kts 252°
2026-05-07 16:41 50.88789 -50.93534 36166 ft 430 kts 252°
2026-05-07 16:41 50.87286 -51.02711 36146 ft 430 kts 252°
2026-05-07 16:42 50.85777 -51.11869 36148 ft 430 kts 251°
2026-05-07 16:42 50.84262 -51.21013 36148 ft 429 kts 251°
2026-05-07 16:43 50.82742 -51.30137 36145 ft 428 kts 251°
2026-05-07 16:43 50.81218 -51.39239 36132 ft 428 kts 251°
2026-05-07 16:44 50.79689 -51.48321 36128 ft 427 kts 251°
2026-05-07 16:44 50.78164 -51.57327 36134 ft 427 kts 251°
2026-05-07 16:45 50.76623 -51.66384 36148 ft 427 kts 250°
2026-05-07 16:45 50.75075 -51.75438 36131 ft 426 kts 250°
2026-05-07 16:46 50.73520 -51.84479 36116 ft 426 kts 250°
2026-05-07 16:46 50.71960 -51.93507 36111 ft 426 kts 250°
2026-05-07 16:47 50.70397 -52.02509 36100 ft 426 kts 250°
2026-05-07 16:47 50.68824 -52.11522 36097 ft 426 kts 250°
2026-05-07 16:48 50.67245 -52.20520 36102 ft 426 kts 250°
2026-05-07 16:48 50.65655 -52.29531 36102 ft 427 kts 250°
2026-05-07 16:49 50.64064 -52.38508 36092 ft 428 kts 249°
2026-05-07 16:49 50.62454 -52.47546 36130 ft 429 kts 249°
2026-05-07 16:50 50.60831 -52.56606 36096 ft 430 kts 249°
2026-05-07 16:50 50.59204 -52.65655 36073 ft 430 kts 249°
2026-05-07 16:51 50.57845 -52.73181 36073 ft 430 kts 249°
2026-05-07 16:51 50.56205 -52.82211 36069 ft 429 kts 249°
2026-05-07 16:52 50.54559 -52.91235 36063 ft 429 kts 249°
2026-05-07 16:52 50.52909 -53.00236 36057 ft 428 kts 249°
2026-05-07 16:53 50.51251 -53.09229 36049 ft 428 kts 249°
2026-05-07 16:53 50.49587 -53.18215 36057 ft 428 kts 249°
2026-05-07 16:54 50.47919 -53.27181 36077 ft 428 kts 249°
2026-05-07 16:54 50.46246 -53.36130 36045 ft 427 kts 249°
2026-05-07 16:55 50.44568 -53.45064 36036 ft 426 kts 248°
2026-05-07 16:55 50.42899 -53.53908 36033 ft 425 kts 248°
2026-05-07 16:56 50.41203 -53.62847 36021 ft 424 kts 248°
2026-05-07 16:56 50.38670 -53.76126 36024 ft 424 kts 248°
2026-05-07 16:57 50.36983 -53.84914 36017 ft 424 kts 248°
2026-05-07 16:57 50.35282 -53.93738 36007 ft 424 kts 248°
2026-05-07 16:58 50.33570 -54.02574 36008 ft 424 kts 248°
2026-05-07 16:58 50.31854 -54.11393 36027 ft 424 kts 248°
2026-05-07 16:59 50.30124 -54.20241 36000 ft 425 kts 248°
2026-05-07 16:59 50.28391 -54.29069 35993 ft 424 kts 248°
2026-05-07 17:00 50.26650 -54.37896 36001 ft 424 kts 248°
2026-05-07 17:00 50.24914 -54.46655 35981 ft 424 kts 248°
2026-05-07 17:01 50.23150 -54.55513 35967 ft 424 kts 248°
2026-05-07 17:01 50.21405 -54.64239 35967 ft 424 kts 248°
2026-05-07 17:02 50.19638 -54.73035 35964 ft 424 kts 248°
2026-05-07 17:02 50.17866 -54.81816 35966 ft 425 kts 248°
2026-05-07 17:03 50.16084 -54.90609 35975 ft 426 kts 247°
2026-05-07 17:03 50.14290 -54.99418 35961 ft 426 kts 247°
2026-05-07 17:04 50.12490 -55.08222 35950 ft 426 kts 247°
2026-05-07 17:04 50.10681 -55.17032 35951 ft 426 kts 247°
2026-05-07 17:05 50.08865 -55.25833 35935 ft 427 kts 247°
2026-05-07 17:05 50.07039 -55.34640 35942 ft 428 kts 247°
2026-05-07 17:06 50.05203 -55.43460 35937 ft 428 kts 247°
2026-05-07 17:06 50.03370 -55.52229 35933 ft 429 kts 247°
2026-05-07 17:07 50.01518 -55.61046 35932 ft 429 kts 247°
2026-05-07 17:07 49.99657 -55.69872 35931 ft 429 kts 247°
2026-05-07 17:08 49.97791 -55.78685 35929 ft 429 kts 247°
2026-05-07 17:08 49.95917 -55.87492 35922 ft 429 kts 246°
2026-05-07 17:09 49.94039 -55.96280 35917 ft 428 kts 246°
2026-05-07 17:09 49.92158 -56.05047 35922 ft 428 kts 246°
2026-05-07 17:10 49.90270 -56.13808 35914 ft 428 kts 246°
2026-05-07 17:10 49.88387 -56.22509 35916 ft 427 kts 247°
2026-05-07 17:11 49.86490 -56.31236 35916 ft 427 kts 246°
2026-05-07 17:11 49.84589 -56.39946 35916 ft 426 kts 246°
2026-05-07 17:12 49.82685 -56.48632 35915 ft 426 kts 246°
2026-05-07 17:12 49.80775 -56.57308 35914 ft 425 kts 246°
2026-05-07 17:13 49.78862 -56.65961 35904 ft 424 kts 246°
2026-05-07 17:13 49.76951 -56.74582 35895 ft 423 kts 247°
2026-05-07 17:14 49.75034 -56.83179 35899 ft 422 kts 246°
2026-05-07 17:14 49.73118 -56.91737 35906 ft 421 kts 246°
2026-05-07 17:15 49.71194 -57.00294 35896 ft 422 kts 246°
2026-05-07 17:15 49.69263 -57.08853 35888 ft 422 kts 246°
2026-05-07 17:16 49.67325 -57.17408 35885 ft 422 kts 246°
2026-05-07 17:16 49.65376 -57.25973 35887 ft 423 kts 248°
2026-05-07 17:17 49.63422 -57.34531 35865 ft 422 kts 248°
2026-05-07 17:17 49.61467 -57.43059 35865 ft 421 kts 248°
2026-05-07 17:18 49.59507 -57.51571 36017 ft 423 kts 247°
2026-05-07 17:18 49.58517 -57.55856 36301 ft 423 kts 247°
2026-05-07 17:18 49.57530 -57.60122 36652 ft 423 kts 247°
2026-05-07 17:19 49.56544 -57.64379 36993 ft 422 kts 247°
2026-05-07 17:19 49.55552 -57.68647 37279 ft 422 kts 247°
2026-05-07 17:19 49.54562 -57.72902 37540 ft 423 kts 247°
2026-05-07 17:19 49.53567 -57.77166 37726 ft 424 kts 247°
2026-05-07 17:20 49.51571 -57.85696 37819 ft 427 kts 247°
2026-05-07 17:20 49.49560 -57.94265 37819 ft 423 kts 247°
2026-05-07 17:21 49.47557 -58.02768 37794 ft 422 kts 247°
2026-05-07 17:21 49.45550 -58.11245 37789 ft 421 kts 247°
2026-05-07 17:22 49.43538 -58.19707 37792 ft 422 kts 247°
2026-05-07 17:22 49.41518 -58.28175 37767 ft 422 kts 247°
2026-05-07 17:23 49.39490 -58.36643 37767 ft 423 kts 247°
2026-05-07 17:23 49.37452 -58.45121 37760 ft 424 kts 247°
2026-05-07 17:24 49.35404 -58.53609 37763 ft 424 kts 247°
2026-05-07 17:24 49.33344 -58.62110 37745 ft 425 kts 247°
2026-05-07 17:25 49.31279 -58.70603 37787 ft 425 kts 246°
2026-05-07 17:25 49.29219 -58.79043 37746 ft 426 kts 246°
2026-05-07 17:26 49.27139 -58.87533 37733 ft 425 kts 246°
2026-05-07 17:26 49.25054 -58.96006 37724 ft 424 kts 246°
2026-05-07 17:27 49.22973 -59.04435 37724 ft 423 kts 246°
2026-05-07 17:27 49.20889 -59.12840 37726 ft 423 kts 246°
2026-05-07 17:28 49.18801 -59.21235 37711 ft 422 kts 246°
2026-05-07 17:28 49.16708 -59.29614 37711 ft 422 kts 246°
2026-05-07 17:29 49.14620 -59.37941 37709 ft 421 kts 246°
2026-05-07 17:29 49.12517 -59.46299 37745 ft 422 kts 246°
2026-05-07 17:30 49.10399 -59.54684 37707 ft 423 kts 246°
2026-05-07 17:30 49.08285 -59.63025 37706 ft 422 kts 246°
2026-05-07 17:31 49.06165 -59.71357 37700 ft 421 kts 246°
2026-05-07 17:31 49.04051 -59.79638 37709 ft 421 kts 246°
2026-05-07 17:32 49.01917 -59.87961 37691 ft 422 kts 246°
2026-05-07 17:32 49.00127 -59.94924 37698 ft 421 kts 245°
2026-05-07 17:33 48.97637 -60.04572 37687 ft 420 kts 245°
2026-05-07 17:33 48.95493 -60.12847 37688 ft 419 kts 245°
2026-05-07 17:34 48.93349 -60.21093 37702 ft 420 kts 245°
2026-05-07 17:34 48.91195 -60.29342 37694 ft 420 kts 245°
2026-05-07 17:35 48.89034 -60.37594 37679 ft 420 kts 245°
2026-05-07 17:35 48.86868 -60.45833 37677 ft 420 kts 245°
2026-05-07 17:36 48.85058 -60.52699 37673 ft 420 kts 245°
2026-05-07 17:36 48.82879 -60.60931 37672 ft 421 kts 245°
2026-05-07 17:37 48.80690 -60.69174 37668 ft 422 kts 245°
2026-05-07 17:37 48.78489 -60.77435 37670 ft 422 kts 245°
2026-05-07 17:38 48.76280 -60.85696 37667 ft 423 kts 245°
2026-05-07 17:38 48.74072 -60.93921 37666 ft 424 kts 245°
2026-05-07 17:39 48.71841 -61.02205 37653 ft 424 kts 244°
2026-05-07 17:39 48.69609 -61.10466 37655 ft 423 kts 244°
2026-05-07 17:40 48.67377 -61.18696 37647 ft 423 kts 244°
2026-05-07 17:40 48.65139 -61.26916 37648 ft 422 kts 244°
2026-05-07 17:41 48.62899 -61.35116 37653 ft 421 kts 244°
2026-05-07 17:41 48.60660 -61.43288 37654 ft 421 kts 244°
2026-05-07 17:42 48.58418 -61.51440 37639 ft 420 kts 244°
2026-05-07 17:42 48.56166 -61.59596 37708 ft 420 kts 244°
2026-05-07 17:43 48.53928 -61.67676 37655 ft 421 kts 244°
2026-05-07 17:43 48.51667 -61.75814 37647 ft 421 kts 244°
2026-05-07 17:44 48.49394 -61.83965 37649 ft 420 kts 244°
2026-05-07 17:44 48.47124 -61.92080 37641 ft 420 kts 244°
2026-05-07 17:45 48.44853 -62.00166 37640 ft 419 kts 244°
2026-05-07 17:45 48.42581 -62.08234 37643 ft 418 kts 244°
2026-05-07 17:46 48.40305 -62.16286 37647 ft 417 kts 244°
2026-05-07 17:46 48.38025 -62.24323 37647 ft 417 kts 244°
2026-05-07 17:47 48.35744 -62.32342 37670 ft 417 kts 243°
2026-05-07 17:47 48.33453 -62.40365 37652 ft 417 kts 243°
2026-05-07 17:48 48.31160 -62.48367 37644 ft 417 kts 243°
2026-05-07 17:48 48.28867 -62.56347 37645 ft 416 kts 243°
2026-05-07 17:49 48.26566 -62.64325 37651 ft 416 kts 243°
2026-05-07 17:49 48.24264 -62.72282 37633 ft 416 kts 243°
2026-05-07 17:50 48.21975 -62.80170 37644 ft 415 kts 243°
2026-05-07 17:50 48.19667 -62.88095 37644 ft 414 kts 243°
2026-05-07 17:51 48.17362 -62.95984 37642 ft 413 kts 243°
2026-05-07 17:51 48.15051 -63.03870 37653 ft 413 kts 243°
2026-05-07 17:52 48.12735 -63.11743 37641 ft 413 kts 243°
2026-05-07 17:52 48.10415 -63.19608 37651 ft 413 kts 243°
2026-05-07 17:53 48.08087 -63.27473 37647 ft 413 kts 242°
2026-05-07 17:53 48.05755 -63.35326 37646 ft 413 kts 242°
2026-05-07 17:54 48.03433 -63.43123 37647 ft 413 kts 242°
2026-05-07 17:54 48.01089 -63.50969 37644 ft 413 kts 242°
2026-05-07 17:55 47.98739 -63.58806 37646 ft 413 kts 242°
2026-05-07 17:55 47.96385 -63.66636 37667 ft 414 kts 242°
2026-05-07 17:56 47.94014 -63.74493 37649 ft 415 kts 242°
2026-05-07 17:56 47.91636 -63.82350 37641 ft 416 kts 242°
2026-05-07 17:57 47.89651 -63.88892 37643 ft 417 kts 242°
2026-05-07 17:57 47.86868 -63.98034 37635 ft 417 kts 242°
2026-05-07 17:58 47.84464 -64.05903 37643 ft 417 kts 242°
2026-05-07 17:58 47.82061 -64.13745 37639 ft 416 kts 242°
2026-05-07 17:59 47.79654 -64.21575 37634 ft 415 kts 242°
2026-05-07 17:59 47.77246 -64.29383 37634 ft 415 kts 242°
2026-05-07 18:00 47.74835 -64.37174 37645 ft 415 kts 242°
2026-05-07 18:00 47.72430 -64.44921 37650 ft 415 kts 242°
2026-05-07 18:01 47.70008 -64.52703 37638 ft 415 kts 242°
2026-05-07 18:01 47.67581 -64.60474 37638 ft 415 kts 242°
2026-05-07 18:02 47.63932 -64.72115 37638 ft 415 kts 242°
2026-05-07 18:03 47.61488 -64.79883 37640 ft 415 kts 242°
2026-05-07 18:03 47.59039 -64.87641 37624 ft 415 kts 242°
2026-05-07 18:04 47.56588 -64.95382 37641 ft 415 kts 242°
2026-05-07 18:04 47.54129 -65.03125 37636 ft 417 kts 242°
2026-05-07 18:05 47.51653 -65.10897 37640 ft 418 kts 242°
2026-05-07 18:05 47.49163 -65.18690 37632 ft 419 kts 242°
2026-05-07 18:06 47.46679 -65.26441 37642 ft 420 kts 242°
2026-05-07 18:06 47.44169 -65.34249 37658 ft 421 kts 242°
2026-05-07 18:07 47.41654 -65.42046 37654 ft 421 kts 242°
2026-05-07 18:07 47.39133 -65.49842 37656 ft 420 kts 242°
2026-05-07 18:08 47.36609 -65.57623 37660 ft 420 kts 242°
2026-05-07 18:08 47.34077 -65.65402 37700 ft 420 kts 242°
2026-05-07 18:09 47.31536 -65.73185 37672 ft 422 kts 242°
2026-05-07 18:09 47.28982 -65.80983 37668 ft 423 kts 242°
2026-05-07 18:10 47.26420 -65.88786 37666 ft 423 kts 242°
2026-05-07 18:10 47.23848 -65.96593 37667 ft 424 kts 242°
2026-05-07 18:11 47.21273 -66.04387 37666 ft 424 kts 242°
2026-05-07 18:11 47.18687 -66.12192 37650 ft 424 kts 242°
2026-05-07 18:12 47.16103 -66.19965 37664 ft 423 kts 242°
2026-05-07 18:12 47.13518 -66.27718 37666 ft 422 kts 242°
2026-05-07 18:13 47.10927 -66.35464 37666 ft 423 kts 242°
2026-05-07 18:13 47.08342 -66.43171 37665 ft 423 kts 242°
2026-05-07 18:14 47.05739 -66.50912 37652 ft 423 kts 242°
2026-05-07 18:14 47.03131 -66.58642 37662 ft 422 kts 242°
2026-05-07 18:15 47.00523 -66.66349 37675 ft 422 kts 242°
2026-05-07 18:15 46.97915 -66.74034 37670 ft 421 kts 242°
2026-05-07 18:16 46.95306 -66.81701 37679 ft 421 kts 242°
2026-05-07 18:16 46.92688 -66.89371 37670 ft 421 kts 242°
2026-05-07 18:17 46.90067 -66.97032 37682 ft 421 kts 242°
2026-05-07 18:17 46.87557 -67.04781 37690 ft 422 kts 246°
2026-05-07 18:18 46.85781 -67.12986 37686 ft 425 kts 251°
2026-05-07 18:18 46.84190 -67.21305 37686 ft 425 kts 251°
2026-05-07 18:19 46.82590 -67.29565 37689 ft 425 kts 251°
2026-05-07 18:19 46.80969 -67.37867 37687 ft 425 kts 251°
2026-05-07 18:20 46.79342 -67.46158 37680 ft 425 kts 251°
2026-05-07 18:20 46.77706 -67.54453 37683 ft 425 kts 251°
2026-05-07 18:21 46.76066 -67.62732 37685 ft 425 kts 251°
2026-05-07 18:21 46.74422 -67.71004 37687 ft 425 kts 251°
2026-05-07 18:22 46.72769 -67.79280 37695 ft 425 kts 251°
2026-05-07 18:22 46.71122 -67.87495 37690 ft 425 kts 251°
2026-05-07 18:23 46.69459 -67.95754 37696 ft 425 kts 251°
2026-05-07 18:23 46.68062 -68.02662 37709 ft 426 kts 251°
2026-05-07 18:24 46.66390 -68.10900 37696 ft 427 kts 251°
2026-05-07 18:24 46.64698 -68.19207 37697 ft 428 kts 251°
2026-05-07 18:25 46.62998 -68.27516 37707 ft 428 kts 251°
2026-05-07 18:25 46.61289 -68.35833 37704 ft 430 kts 251°
2026-05-07 18:26 46.59570 -68.44164 37696 ft 430 kts 251°
2026-05-07 18:26 46.57847 -68.52483 37726 ft 429 kts 251°
2026-05-07 18:27 46.56119 -68.60788 37694 ft 430 kts 251°
2026-05-07 18:27 46.54381 -68.69107 37695 ft 430 kts 251°
2026-05-07 18:28 46.52643 -68.77397 37697 ft 429 kts 251°
2026-05-07 18:28 46.50895 -68.85698 37693 ft 429 kts 251°
2026-05-07 18:29 46.49154 -68.93927 37701 ft 429 kts 251°
2026-05-07 18:29 46.47398 -69.02198 37690 ft 429 kts 251°
2026-05-07 18:30 46.45636 -69.10463 37702 ft 428 kts 251°
2026-05-07 18:30 46.43870 -69.18717 37704 ft 428 kts 251°
2026-05-07 18:31 46.42100 -69.26950 37716 ft 428 kts 251°
2026-05-07 18:31 46.40324 -69.35185 37708 ft 428 kts 251°
2026-05-07 18:32 46.38544 -69.43403 37711 ft 427 kts 251°
2026-05-07 18:32 46.36758 -69.51616 37709 ft 427 kts 251°
2026-05-07 18:33 46.34965 -69.59824 37715 ft 428 kts 251°
2026-05-07 18:33 46.33165 -69.68038 37707 ft 428 kts 251°
2026-05-07 18:34 46.31361 -69.76236 37706 ft 428 kts 251°
2026-05-07 18:34 46.29550 -69.84435 37711 ft 427 kts 251°
2026-05-07 18:35 46.27748 -69.92564 37713 ft 427 kts 251°
2026-05-07 18:35 46.25926 -70.00746 37718 ft 427 kts 251°
2026-05-07 18:36 46.24098 -70.08924 37714 ft 428 kts 251°
2026-05-07 18:36 46.22267 -70.17086 37729 ft 427 kts 251°
2026-05-07 18:37 46.20429 -70.25249 37731 ft 426 kts 251°
2026-05-07 18:37 46.18601 -70.33337 37728 ft 426 kts 251°
2026-05-07 18:38 46.16750 -70.41495 37747 ft 425 kts 251°
2026-05-07 18:38 46.14915 -70.49548 37739 ft 425 kts 251°
2026-05-07 18:39 46.13063 -70.57649 37773 ft 425 kts 250°
2026-05-07 18:39 46.11205 -70.65745 37745 ft 425 kts 250°
2026-05-07 18:40 46.09343 -70.73828 37754 ft 425 kts 250°
2026-05-07 18:40 46.07477 -70.81898 37760 ft 424 kts 250°
2026-05-07 18:41 46.05609 -70.89946 37763 ft 424 kts 250°
2026-05-07 18:41 46.03733 -70.98002 37765 ft 424 kts 250°
2026-05-07 18:42 46.01854 -71.06038 37805 ft 424 kts 250°
2026-05-07 18:42 45.99962 -71.14099 37762 ft 425 kts 250°
2026-05-07 18:43 45.98079 -71.22095 37771 ft 425 kts 250°
2026-05-07 18:43 45.96176 -71.30144 37772 ft 425 kts 250°
2026-05-07 18:44 45.94269 -71.38183 37785 ft 425 kts 250°
2026-05-07 18:44 45.92355 -71.46224 37788 ft 425 kts 250°
2026-05-07 18:45 45.90435 -71.54257 37782 ft 425 kts 250°
2026-05-07 18:45 45.88506 -71.62300 37786 ft 427 kts 250°
2026-05-07 18:46 45.86564 -71.70365 37790 ft 427 kts 250°
2026-05-07 18:46 45.84619 -71.78418 37785 ft 427 kts 250°
2026-05-07 18:47 45.82666 -71.86475 37794 ft 428 kts 250°
2026-05-07 18:47 45.80705 -71.94534 37782 ft 428 kts 250°
2026-05-07 18:48 45.78741 -72.02576 37793 ft 428 kts 250°
2026-05-07 18:48 45.76767 -72.10630 37791 ft 428 kts 250°
2026-05-07 18:49 45.74790 -72.18671 37787 ft 428 kts 250°
2026-05-07 18:49 45.72822 -72.26645 37792 ft 427 kts 250°
2026-05-07 18:50 45.70828 -72.34696 37790 ft 426 kts 250°
2026-05-07 18:50 45.68842 -72.42688 37809 ft 426 kts 250°
2026-05-07 18:51 45.66864 -72.50619 37803 ft 426 kts 250°
2026-05-07 18:51 45.64870 -72.58592 37807 ft 426 kts 250°
2026-05-07 18:52 45.62879 -72.66581 37807 ft 427 kts 252°
2026-05-07 18:52 45.61528 -72.74834 37820 ft 428 kts 259°
2026-05-07 18:53 45.60936 -72.83298 37819 ft 429 kts 263°
2026-05-07 18:53 45.60513 -72.91799 37800 ft 429 kts 263°
2026-05-07 18:54 45.60078 -73.00320 37821 ft 429 kts 263°
2026-05-07 18:54 45.59624 -73.08827 37808 ft 429 kts 263°
2026-05-07 18:55 45.59159 -73.17320 37804 ft 430 kts 263°
2026-05-07 18:55 45.58686 -73.25830 37803 ft 429 kts 263°
2026-05-07 18:56 45.58208 -73.34321 37805 ft 429 kts 263°
2026-05-07 18:56 45.57723 -73.42811 37821 ft 429 kts 263°
2026-05-07 18:57 45.57235 -73.51259 37810 ft 430 kts 263°
2026-05-07 18:57 45.56736 -73.59771 37805 ft 430 kts 263°
2026-05-07 18:58 45.56231 -73.68279 37822 ft 430 kts 263°
2026-05-07 18:58 45.55720 -73.76792 37827 ft 430 kts 263°
2026-05-07 18:59 45.55203 -73.85292 37821 ft 430 kts 263°
2026-05-07 18:59 45.54680 -73.93794 37812 ft 430 kts 263°
2026-05-07 19:00 45.54150 -74.02302 37811 ft 430 kts 263°
2026-05-07 19:00 45.53614 -74.10799 37814 ft 430 kts 263°
2026-05-07 19:01 45.53075 -74.19239 37818 ft 430 kts 263°
2026-05-07 19:01 45.52526 -74.27742 37818 ft 431 kts 263°
2026-05-07 19:02 45.51970 -74.36265 37814 ft 432 kts 263°
2026-05-07 19:02 45.51404 -74.44795 37817 ft 432 kts 262°
2026-05-07 19:03 45.50388 -74.53219 37813 ft 430 kts 257°
2026-05-07 19:03 45.49193 -74.61577 37816 ft 430 kts 257°
2026-05-07 19:04 45.48009 -74.69924 37830 ft 430 kts 257°
2026-05-07 19:04 45.46832 -74.78247 37828 ft 431 kts 257°
2026-05-07 19:05 45.45644 -74.86620 37831 ft 432 kts 257°
2026-05-07 19:05 45.44448 -74.95004 37835 ft 432 kts 257°
2026-05-07 19:06 45.43246 -75.03384 37835 ft 432 kts 257°
2026-05-07 19:06 45.41426 -75.15952 37849 ft 433 kts 257°
2026-05-07 19:07 45.40202 -75.24350 37843 ft 433 kts 257°
2026-05-07 19:07 45.38973 -75.32747 37850 ft 433 kts 257°
2026-05-07 19:08 45.37949 -75.39706 37852 ft 433 kts 257°
2026-05-07 19:08 45.36709 -75.48092 37859 ft 433 kts 257°
2026-05-07 19:09 45.35464 -75.56469 37870 ft 433 kts 257°
2026-05-07 19:09 45.34211 -75.64848 37861 ft 433 kts 257°
2026-05-07 19:10 45.32953 -75.73229 37861 ft 434 kts 257°
2026-05-07 19:10 45.31688 -75.81604 37860 ft 434 kts 257°
2026-05-07 19:11 45.30422 -75.89942 37856 ft 434 kts 257°
2026-05-07 19:11 45.29145 -75.98311 37876 ft 433 kts 257°
2026-05-07 19:12 45.27860 -76.06687 37867 ft 434 kts 257°
2026-05-07 19:12 45.26573 -76.15045 37868 ft 434 kts 257°
2026-05-07 19:13 45.25023 -76.23284 37890 ft 431 kts 246°
2026-05-07 19:13 45.23505 -76.26972 37869 ft 434 kts 232°
2026-05-07 19:13 45.21512 -76.30172 37890 ft 433 kts 231°
2026-05-07 19:14 45.17519 -76.36580 37883 ft 435 kts 231°
2026-05-07 19:14 45.13556 -76.43060 37871 ft 435 kts 232°
2026-05-07 19:15 45.09663 -76.49450 37890 ft 437 kts 232°
2026-05-07 19:15 45.05685 -76.55968 37891 ft 438 kts 232°
2026-05-07 19:16 45.01694 -76.62487 37884 ft 439 kts 232°
2026-05-07 19:16 44.97687 -76.69015 37876 ft 439 kts 232°
2026-05-07 19:17 44.93690 -76.75514 37890 ft 438 kts 232°
2026-05-07 19:17 44.89699 -76.81987 37892 ft 437 kts 231°
2026-05-07 19:18 44.85707 -76.88451 37712 ft 438 kts 231°
2026-05-07 19:18 44.83725 -76.91652 37380 ft 436 kts 231°
2026-05-07 19:18 44.81743 -76.94851 37049 ft 430 kts 232°
2026-05-07 19:19 44.79980 -76.98190 36717 ft 420 kts 240°
2026-05-07 19:19 44.78534 -77.01713 36446 ft 413 kts 243°
2026-05-07 19:19 44.77161 -77.05239 36159 ft 410 kts 243°
2026-05-07 19:19 44.75802 -77.08753 35873 ft 407 kts 243°
2026-05-07 19:20 44.74438 -77.12237 35597 ft 404 kts 243°
2026-05-07 19:20 44.73073 -77.15677 35300 ft 402 kts 242°
2026-05-07 19:20 44.71703 -77.19089 34974 ft 400 kts 242°
2026-05-07 19:20 44.70330 -77.22483 34661 ft 398 kts 242°
2026-05-07 19:21 44.68961 -77.25852 34338 ft 396 kts 242°
2026-05-07 19:21 44.67599 -77.29197 34028 ft 393 kts 242°
2026-05-07 19:21 44.66246 -77.32513 33676 ft 388 kts 242°
2026-05-07 19:21 44.64910 -77.35783 33261 ft 383 kts 242°
2026-05-07 19:22 44.63590 -77.39014 32727 ft 380 kts 242°
2026-05-07 19:22 44.62279 -77.42218 32215 ft 376 kts 242°
2026-05-07 19:22 44.60979 -77.45394 31718 ft 373 kts 243°
2026-05-07 19:22 44.59711 -77.48489 31234 ft 370 kts 243°
2026-05-07 19:23 44.58435 -77.51597 30749 ft 366 kts 243°
2026-05-07 19:23 44.57150 -77.54731 30080 ft 375 kts 243°
2026-05-07 19:23 44.55847 -77.57900 29426 ft 373 kts 243°
2026-05-07 19:23 44.54557 -77.61034 28896 ft 368 kts 243°
2026-05-07 19:24 44.53287 -77.64115 28397 ft 362 kts 243°
2026-05-07 19:24 44.52034 -77.67149 27892 ft 357 kts 243°
2026-05-07 19:24 44.50796 -77.70141 27436 ft 351 kts 243°
2026-05-07 19:24 44.49575 -77.73087 26977 ft 347 kts 243°
2026-05-07 19:25 44.48373 -77.75983 26531 ft 342 kts 243°
2026-05-07 19:25 44.47182 -77.78852 26065 ft 339 kts 243°
2026-05-07 19:25 44.46004 -77.81690 25622 ft 335 kts 243°
2026-05-07 19:25 44.44836 -77.84500 25188 ft 332 kts 243°
2026-05-07 19:26 44.43679 -77.87280 24753 ft 329 kts 243°
2026-05-07 19:26 44.42531 -77.90037 24368 ft 326 kts 243°
2026-05-07 19:26 44.41397 -77.92759 23973 ft 323 kts 243°
2026-05-07 19:26 44.40268 -77.95466 23553 ft 321 kts 243°
2026-05-07 19:27 44.39146 -77.98156 23090 ft 319 kts 243°
2026-05-07 19:27 44.38043 -78.00795 22646 ft 317 kts 243°
2026-05-07 19:27 44.36936 -78.03441 22239 ft 314 kts 243°
2026-05-07 19:27 44.35840 -78.06056 21808 ft 311 kts 243°
2026-05-07 19:28 44.34746 -78.08663 21392 ft 308 kts 243°
2026-05-07 19:28 44.33665 -78.11230 20997 ft 306 kts 243°
2026-05-07 19:28 44.32591 -78.13781 20588 ft 304 kts 243°
2026-05-07 19:28 44.31523 -78.16317 20181 ft 302 kts 243°
2026-05-07 19:29 44.30458 -78.18842 19792 ft 302 kts 243°
2026-05-07 19:29 44.29389 -78.21379 19395 ft 306 kts 243°
2026-05-07 19:29 44.28292 -78.23982 19005 ft 315 kts 243°
2026-05-07 19:29 44.27175 -78.26630 18566 ft 318 kts 243°
2026-05-07 19:30 44.26052 -78.29284 18136 ft 317 kts 243°
2026-05-07 19:30 44.24937 -78.31917 17658 ft 315 kts 243°
2026-05-07 19:30 44.23827 -78.34534 17215 ft 312 kts 243°
2026-05-07 19:30 44.22731 -78.37117 16811 ft 309 kts 243°
2026-05-07 19:31 44.21643 -78.39680 16392 ft 306 kts 243°
2026-05-07 19:31 44.20563 -78.42223 15985 ft 304 kts 243°
2026-05-07 19:31 44.19488 -78.44750 15581 ft 302 kts 242°
2026-05-07 19:31 44.18420 -78.47261 15182 ft 300 kts 242°
2026-05-07 19:32 44.17358 -78.49755 14793 ft 298 kts 242°
2026-05-07 19:32 44.16302 -78.52232 14395 ft 297 kts 242°
2026-05-07 19:32 44.15250 -78.54700 14007 ft 296 kts 242°
2026-05-07 19:32 44.14203 -78.57156 13612 ft 295 kts 242°
2026-05-07 19:33 44.13153 -78.59612 13189 ft 294 kts 242°
2026-05-07 19:33 44.12108 -78.62052 12784 ft 293 kts 242°
2026-05-07 19:33 44.11081 -78.64453 12410 ft 291 kts 242°
2026-05-07 19:33 44.10047 -78.66867 12029 ft 290 kts 242°
2026-05-07 19:34 44.09017 -78.69271 11645 ft 288 kts 242°
2026-05-07 19:34 44.07981 -78.71687 11276 ft 286 kts 242°
2026-05-07 19:34 44.06974 -78.74034 10910 ft 285 kts 242°
2026-05-07 19:34 44.05963 -78.76387 10548 ft 283 kts 242°
2026-05-07 19:35 44.04967 -78.78698 10416 ft 273 kts 242°
2026-05-07 19:35 44.03998 -78.80856 10280 ft 254 kts 236°
2026-05-07 19:35 44.02874 -78.82695 10179 ft 246 kts 231°
2026-05-07 19:35 44.01697 -78.84423 9949 ft 249 kts 230°
2026-05-07 19:36 44.00489 -78.86185 9644 ft 255 kts 230°
2026-05-07 19:36 43.99262 -78.87986 9332 ft 258 kts 230°
2026-05-07 19:36 43.98029 -78.89806 9002 ft 258 kts 230°
2026-05-07 19:36 43.96803 -78.91624 8673 ft 257 kts 230°
2026-05-07 19:37 43.95587 -78.93436 8365 ft 256 kts 230°
2026-05-07 19:37 43.94373 -78.95248 8047 ft 256 kts 230°
2026-05-07 19:37 43.93174 -78.97065 7716 ft 251 kts 234°
2026-05-07 19:37 43.92312 -78.99141 7400 ft 247 kts 248°
2026-05-07 19:38 43.91649 -79.01339 7111 ft 247 kts 249°
2026-05-07 19:38 43.91019 -79.03521 6816 ft 246 kts 250°
2026-05-07 19:38 43.90371 -79.05750 6518 ft 246 kts 249°
2026-05-07 19:38 43.89724 -79.07921 6201 ft 247 kts 249°
2026-05-07 19:39 43.89067 -79.10086 6079 ft 240 kts 249°
2026-05-07 19:39 43.88419 -79.12201 6028 ft 239 kts 248°
2026-05-07 19:39 43.87760 -79.14340 6029 ft 244 kts 248°
2026-05-07 19:39 43.87088 -79.16515 6032 ft 247 kts 248°
2026-05-07 19:40 43.86407 -79.18704 6016 ft 247 kts 248°
2026-05-07 19:40 43.85727 -79.20878 6007 ft 245 kts 248°
2026-05-07 19:40 43.85051 -79.23032 6023 ft 243 kts 248°
2026-05-07 19:40 43.84379 -79.25175 6019 ft 242 kts 248°
2026-05-07 19:41 43.83705 -79.27322 5998 ft 243 kts 248°
2026-05-07 19:41 43.83032 -79.29463 6009 ft 242 kts 248°
2026-05-07 19:41 43.82358 -79.31604 6019 ft 243 kts 248°
2026-05-07 19:41 43.81683 -79.33748 6017 ft 243 kts 248°
2026-05-07 19:42 43.81012 -79.35876 6000 ft 244 kts 248°
2026-05-07 19:42 43.80333 -79.38025 5987 ft 238 kts 248°
2026-05-07 19:42 43.79700 -79.40073 5932 ft 224 kts 248°
2026-05-07 19:42 43.79097 -79.41965 5973 ft 211 kts 248°
2026-05-07 19:43 43.78385 -79.43667 5873 ft 202 kts 235°
2026-05-07 19:43 43.77509 -79.45133 5711 ft 195 kts 232°
2026-05-07 19:43 43.76610 -79.46491 5367 ft 195 kts 230°
2026-05-07 19:43 43.75640 -79.47908 4764 ft 209 kts 229°
2026-05-07 19:44 43.74643 -79.49325 4270 ft 198 kts 230°
2026-05-07 19:44 43.73734 -79.50598 4080 ft 176 kts 227°
2026-05-07 19:44 43.72705 -79.51399 3608 ft 176 kts 193°
2026-05-07 19:44 43.71472 -79.51255 3237 ft 178 kts 170°
2026-05-07 19:45 43.70329 -79.50399 3092 ft 205 kts 141°
2026-05-07 19:45 43.69295 -79.49060 3017 ft 208 kts 140°
2026-05-07 19:45 43.68265 -79.47653 2998 ft 209 kts 128°
2026-05-07 19:45 43.67772 -79.45775 3012 ft 213 kts 90°
2026-05-07 19:46 43.68152 -79.43820 3018 ft 211 kts 57°
2026-05-07 19:46 43.68986 -79.42161 3022 ft 210 kts 50°
2026-05-07 19:46 43.69866 -79.40546 3014 ft 210 kts 50°
2026-05-07 19:46 43.70739 -79.38954 3013 ft 210 kts 50°
2026-05-07 19:47 43.71620 -79.37351 3001 ft 209 kts 50°
2026-05-07 19:47 43.72496 -79.35760 3002 ft 207 kts 50°
2026-05-07 19:47 43.73364 -79.34188 3012 ft 205 kts 50°
2026-05-07 19:47 43.74350 -79.32825 2987 ft 197 kts 24°
2026-05-07 19:48 43.75646 -79.32503 3021 ft 183 kts 346°
2026-05-07 19:48 43.76681 -79.33230 3003 ft 159 kts 319°
2026-05-07 19:48 43.77538 -79.34149 2992 ft 154 kts 319°
2026-05-07 19:48 43.78220 -79.35251 3016 ft 152 kts 292°
2026-05-07 19:49 43.78288 -79.36683 3013 ft 152 kts 258°
2026-05-07 19:49 43.78030 -79.38135 3018 ft 158 kts 259°
2026-05-07 19:49 43.77800 -79.39597 3001 ft 152 kts 260°
2026-05-07 19:49 43.77580 -79.41013 3004 ft 149 kts 259°
2026-05-07 19:50 43.77366 -79.42435 3006 ft 153 kts 259°
2026-05-07 19:50 43.77138 -79.43878 3016 ft 155 kts 259°
2026-05-07 19:50 43.76882 -79.45317 2983 ft 152 kts 249°
2026-05-07 19:50 43.76275 -79.46485 3020 ft 151 kts 236°
2026-05-07 19:51 43.75624 -79.47658 3018 ft 156 kts 238°
2026-05-07 19:51 43.74944 -79.48854 2782 ft 157 kts 233°
2026-05-07 19:51 43.74226 -79.49957 2586 ft 151 kts 231°
2026-05-07 19:51 43.73524 -79.50988 2404 ft 147 kts 230°
2026-05-07 19:52 43.72842 -79.51977 2129 ft 133 kts 230°
2026-05-07 19:52 43.72203 -79.52901 1999 ft 133 kts 230°
2026-05-07 19:52 43.71560 -79.53815 1855 ft 137 kts 230°
2026-05-07 19:52 43.70914 -79.54750 1641 ft 133 kts 231°
2026-05-07 19:53 43.70293 -79.55696 1423 ft 132 kts 232°
2026-05-07 19:53 43.69649 -79.56610 1231 ft 136 kts 229°
2026-05-07 19:53 43.69006 -79.57560 1046 ft 135 kts 232°
2026-05-07 19:53 43.68353 -79.58494 838 ft 137 kts 230°
2026-05-07 19:54 43.67706 -79.59456 651 ft 136 kts 229°
2026-05-07 19:54 43.67278 -79.60081 573 ft 132 kts 230°
2026-05-07 19:54 43.66718 -79.60897 575 ft 97 kts 227°
2026-05-07 19:54 43.66391 -79.61373 568 ft 53 kts 227°
2026-05-07 19:55 43.66153 -79.61724 574 ft 40 kts 226°
2026-05-07 19:55 43.66016 -79.61980 574 ft 27 kts 248°
2026-05-07 19:55 43.66003 -79.62202 573 ft 22 kts 302°
2026-05-07 19:55 43.66109 -79.62349 574 ft 22 kts 317°
2026-05-07 19:56 43.66225 -79.62482 572 ft 22 kts 338°
2026-05-07 19:56 43.66357 -79.62401 574 ft 22 kts 41°
2026-05-07 19:56 43.66469 -79.62260 574 ft 22 kts 42°
2026-05-07 19:56 43.66582 -79.62119 577 ft 22 kts 43°
2026-05-07 19:57 43.66695 -79.61976 578 ft 22 kts 42°
2026-05-07 19:57 43.66807 -79.61835 578 ft 22 kts 42°
2026-05-07 19:57 43.66921 -79.61695 577 ft 22 kts 41°
2026-05-07 19:57 43.67031 -79.61551 578 ft 22 kts 43°
2026-05-07 19:58 43.67138 -79.61409 578 ft 22 kts 39°
2026-05-07 19:58 43.67243 -79.61281 575 ft 16 kts 11°
2026-05-07 19:58 43.67343 -79.61350 570 ft 17 kts 319°
2026-05-07 19:58 43.67428 -79.61459 570 ft 17 kts 317°
2026-05-07 19:59 43.67513 -79.61569 575 ft 17 kts 317°
2026-05-07 19:59 43.67597 -79.61678 577 ft 17 kts 316°
2026-05-07 19:59 43.67688 -79.61798 573 ft 20 kts 316°
2026-05-07 19:59 43.67792 -79.61936 574 ft 22 kts 316°
2026-05-07 20:00 43.67908 -79.62050 574 ft 13 kts 352°
2026-05-07 20:00 43.68000 -79.62002 575 ft 16 kts 24°
2026-05-07 20:00 43.68092 -79.61953 574 ft 13 kts
2026-05-07 20:00 43.68158 -79.61970 571 ft 8 kts 342°
2026-05-07 20:01 43.68174 -79.61977 571 ft 0 kts 342°